Content
SEND FEEDBACK

Daily
Averages
Monthly
Summary
United States of America

DEDEDO, GUAM


Home > North America > United States > Guam
Elevation: 364 feet     Latitude: 13 33N     Longitude: 144 49E

WEATHER
 
SELECT A DAY
Number of Records: 214,141;   Date Range: 1/1/95 - 10/30/14
 
SHARE

PRINT THIS DATA

[ ← Previous Day ]
WEATHER ALMANAC - MAY 15, 2014
[ Next Day → ]
[ °C ]   °F
Weather ElementAverageHighLow
Temperature83.8 °F89.1 °F (11:54 am)77 °F (2:54 am)
Dewpoint74.2 °F75.9 °F (6:54 am)72 °F (2:54 am)
Humidity73.4 %88 % (3:54 am)62 % (8:39 am)
Barometer29.82 in29.87 in (8:39 am)29.75 in (3:54 pm)
Wind Speed2.6 mph10.4 mph (1:42 pm)
Weather ElementAverage
Visibility10 mi
Wind DirectionENE (54.2 °)

Weather ElementTotal
Precipitation---
Cooling Degree Days18.1 (Base 65)
Growing Degree Days33.1 (Base 50)
Averaged from 31 records on May 15, 2014
WEATHER CONDITIONS BREAKOUT
WIND DIRECTION BREAKOUT
WEATHER BY HOUR - MAY 15, 2014
[ °C ]   °F
Local TimeTemperatureDewpointHumidityBarometerVisibilityWind DirectionWind SpeedGust SpeedPrecipitationEventsConditions
1:54 AM79.0 °F73.0 °F82 %29.81 in10.0 miCalmClear
2:54 AM77.0 °F72.0 °F84 %29.79 in10.0 miCalmClear
3:54 AM77.0 °F73.0 °F88 %29.79 in10.0 miCalmClear
4:54 AM78.1 °F73.9 °F87 %29.79 in10.0 miCalmClear
5:54 AM78.1 °F73.9 °F87 %29.80 in10.0 miCalmClear
6:54 AM81.0 °F75.9 °F85 %29.81 in10.0 miCalmClear
7:54 AM82.9 °F73.9 °F74 %29.83 in10.0 miCalmScattered Clouds
8:23 AM84.2 °F75.2 °F74 %29.86 in10.0 miCalmMostly Cloudy
8:39 AM87.8 °F73.4 °F62 %29.87 in10.0 miCalmMostly Cloudy
8:54 AM88.0 °F73.9 °F63 %29.85 in10.0 miCalmScattered Clouds
9:54 AM84.0 °F73.9 °F72 %29.84 in10.0 miCalmOvercast
10:21 AM86.0 °F75.2 °F70 %29.86 in10.0 miCalmOvercast
10:36 AM86.0 °F73.4 °F66 %29.86 in10.0 miSSW (210°)3.5 mphMostly Cloudy
10:54 AM86.0 °F75.0 °F70 %29.83 in10.0 miNNW (340°)4.6 mphMostly Cloudy
11:01 AM86.0 °F75.2 °F70 %29.85 in10.0 miNNW (330°)5.8 mphOvercast
11:54 AM89.1 °F75.9 °F65 %29.82 in10.0 miVariable3.5 mphMostly Cloudy
12:04 PM87.8 °F75.2 °F66 %29.84 in10.0 miVariable3.5 mphMostly Cloudy
12:30 PM86.0 °F73.4 °F66 %29.83 in10.0 miCalmOvercast
12:54 PM86.0 °F75.0 °F70 %29.81 in10.0 miVariable6.9 mphMostly Cloudy
1:42 PM86.0 °F73.4 °F66 %29.82 in10.0 miESE (120°)10.4 mphMostly Cloudy
1:54 PM88.0 °F73.9 °F63 %29.79 in10.0 miEast (90°)8.1 mphMostly Cloudy
2:54 PM88.0 °F73.9 °F63 %29.77 in10.0 miSE (130°)8.1 mphClear
3:54 PM87.1 °F73.9 °F65 %29.75 in10.0 miESE (110°)8.1 mphPartly Cloudy
4:54 PM86.0 °F73.9 °F67 %29.75 in10.0 miESE (110°)9.2 mphClear
5:54 PM84.9 °F73.0 °F67 %29.76 in10.0 miSE (140°)5.8 mphClear
6:54 PM82.9 °F73.9 °F74 %29.78 in10.0 miCalmClear
7:54 PM82.0 °F75.0 °F79 %29.81 in10.0 miCalmClear
8:54 PM81.0 °F75.0 °F82 %29.83 in10.0 miCalmClear
9:54 PM81.0 °F75.0 °F82 %29.84 in10.0 miCalmClear
10:54 PM81.0 °F75.0 °F82 %29.84 in10.0 miEast (100°)3.5 mphClear
11:54 PM80.1 °F75.0 °F85 %29.84 in10.0 miCalmClear
Hourly data recorded from PGUM, located miles away from Dededo, Guam







STORIES FROM OUR PARTNERS